星链-11296 (STARLINK-11296)

导读

STARLINK-11296是美国太空探索技术公司(SpaceX)星链星座的一颗卫星,于2024年10月30日发射升空,属于星链互联网卫星组网的组成部分。星链计划旨在构建全球卫星互联网星座,为全球偏远地区、海上以及航空等场景提供宽带互联网接入服务,该卫星入轨后将参与星座运营,进一步扩大星链星座的全球覆盖范围与服务能力。

基本信息
目录编号:
61699
目录名称:
STARLINK-11296
国际标识:
2024-195N
轨道中心:
EARTH
卫星名称:
星链-11296
卫星全名:
星链-11296 (STARLINK-11296)
卫星状态:
在轨 (已飞行681 天)
发射日期:
2024-10-30 UTC
国别 :
美国 (US)
星等 :
--
该卫星已列入 空间交会检测服务 Space Conjunction Data Service (SCDS) ,当前飞行风险评估等级: 无高风险
轨道信息
数据来源 国际轨道数据
星历时间: 2026-09-11T14:10:51+0800
9小时前
查看轨道信息
半长轴: 6737.913km
偏心率: 0.0000966
轨道倾角: 53.161°
近地点辐角 102.367°
升交点赤经 191.146°
平近点角 257.745°
近地点: 359.125km
远地点: 360.427km
周期: 91.738分钟
每日圈数: 15.69693
详细信息
固有亮度:
5
最大亮度:
2.5
卫星平台:
Starlink V1.0
覆盖范围:
全球
运营商:
太空探索技术公司
运营商所在国:
美国
制造商(研发单位):
太空探索技术公司
制造商所在国:
美国
使用方式:
暂无
卫星简介
Starlink 计划是 SpaceX 推出的全球卫星互联网项目,通过发射低轨道卫星,为全球尤其是偏远地区提供高速、低延迟的互联网服务。自 2019 年起,Starlink 已部署数千颗卫星,旨在缩小全球数字鸿沟,推动互联网普及。该项目还为军事、航空等行业提供通信支持,带来广泛经济效益。
2D轨道图
3D轨道图
轨道高度分析图
轨道倾角分析图
轨道综合分析图
查看轨道综合分析图
交会数据列表
事件ID 空间交会对象 最接近时刻(TCA) 交会距离 交会风险概率(CRP) 交会风险指数(CRI) 操作
CDM_260906-110603-524806-169922
2026-09-06T
11:06:05+0000
0.096 km
近距离
1.220332E-3 极高风险 0.97
CDM_260913-073106-169906-205821
2026-09-13T
07:31:10+0000
1.918 km
极远距离
1.567368E-6 低风险 0.39
与全量物体交会距离演化趋势
与全量物体交会风险概率演化趋势